FENGYUN 1C DEB

Satellite information

Favourite Embed

Satellite Type and Status

DEBRISIN ORBIT

Key statistics

Satellite FENGYUN 1C DEB at a glance.

Uptime

9553

Days in orbit

Revolutions

≈ 14.2

Per day

Orbit

SSO

Sun Synchronous Orbit

Inclination

99.2

Latest

Satellite identification and parameters

Extended collection of information and parameters for FENGYUN 1C DEB.

Object identification

Identified? True

Debris? True

Object name: FENGYUN 1C DEB

International designator: 1999-025DWZ

Object number (NORAD): 36272

Object ID (CCSDS): 36272

Country: PEOPLES REPUBLIC OF CHINA (PRC)

Current information (Y/N): Y

RCS size: SMALL

Orbital parameters

Period: 101.631 minutes

Inclination: 99.1611 deg

SMA: 7214.042 km

Apoapsis: 958.446 km

Periapsis: 713.368 km

RAAN: 57.1206 deg

Eccentricy: 0.0169862

Argument of periapsis: 4.6322 deg

Mean anomaly: 355.6376 deg

Mean motion: 14.16885542 rev/day

Mean motion (dot): 0.00000599 rev/day2

B* drag term: 0.00028019 1/REarth

Two-line elements (TLE)

Creation date: July 4, 2025, 6:39 p.m.

Reference frame: TEME

Reference center: EARTH

Epoch: July 4, 2025, 12:16 p.m. UTC

TLE line 0: 0 FENGYUN 1C DEB

TLE line 1: 1 36272U 99025DWZ 25185.51177653 .00000599 00000-0 28019-3 0 9997

TLE line 2: 2 36272 99.1611 57.1206 0169862 4.6322 355.6376 14.16885542613334

Live tracking on map

Real-time ground track for satellite FENGYUN 1C DEB.

In-orbit conjunctions

A list of the most updated potential collisions computed for object FENGYUN 1C DEB.

Target Orbit TCA Probability of collision Miss distance Type
NOAA 16 DEB SSO 2025-07-07 04:10:43 0.0001572008 170.0 (m) DEBRIS
METEOR 2-19 LEO 2025-06-03 01:41:10 0.0006226479 91.0 (m) PAYLOAD
CZ-6A R/B LEO 2025-02-20 17:46:40 0.000107018 85.0 (m) ROCKET BODY
NOAA 16 DEB SSO 2024-11-16 12:59:09 0.001031287 167.0 (m) DEBRIS
MAST SSO 2024-07-27 15:33:22 0.0002602955 447.0 (m) PAYLOAD

Associated space launch

Chinese polar orbiting meteorological satellite

FENGYUN 1C DEB was lifted into orbit during the mission ‘Long March 4B | Feng Yun 1C’, on board a Long March 4B space rocket.

The launch took place on May 10, 1999, 1:33 a.m. from Launch Complex 7.

For more information about the launch, click the button.

Launch to space Long March 4B | Feng Yun 1C
Long March 4B | Feng Yun 1C

Agency: N/A

Status: Launch Successful

Launch date: May 10, 1999, 1:33 a.m. UTC

Rocket: Long March 4B

Launch pad: Launch Complex 7

Location: Taiyuan Satellite Launch Center, People's Republic of China

...

Latest news about this satellite

There are no fresh news available about this satellite. Check back as we update our databases every day.


Newsletter sign-up

Weekly statistics, charts and insights to help you stay on top of the space industry.